sat.trackr.live / text

‹ back to catalog

STARLINK-36709

NORAD 67969 · 2026-038J

PAYLOAD ACTIVE UNKNOWN

§ Identity

Operator
Country
US
Launch date
2026-02-25
Launch site
AFWTR
Launch vehicle
Mass (kg)
RCS (m²)

Purposes: comms

External: N2YO · Heavens-Above · Gunter

§ Orbital elements

Epoch: 2026-05-25T00:03:02.678112Z

Period
93.91 min
Inclination
97.2836°
Eccentricity
0.0001527
Mean motion
15.33453195 rev/d
Perigee alt
464.5 km
Apogee alt
466.6 km
Semi-major
6,843.7 km
B*
7.4148e-4
RAAN
155.0228°
Arg perigee
90.1436°
Mean anomaly
269.9982°
Rev number
1,493

§ Raw data

STARLINK-367091 67969U 26038J   26145.00211433  .00023945  00000+0  74148-3 0  99972 67969  97.2836 155.0228 0001527  90.1436 269.9982 15.33453195 14936

JSON: /api/v1/satellites/67969 · /tle

For live sub-satellite position, see the globe view (requires WebGL).

§ Visibility from observer

Set your observer location to see the next 7 days of passes ≥ 10°. The values pass through the URL so the page stays shareable.

No JS? Fill the form by hand. The geolocation button needs JavaScript.